Time,TemperatureF,DewpointF,PressureIn,WindDirection,WindDirectionDegrees,WindSpeedMPH,WindSpeedGustMPH,Humidity,HourlyPrecipIn,Conditions,Clouds,dailyrainin,SoftwareType,DateUTC
2013-01-22 00:01:00,15.3,4.2,30.29,West,265,7.0,10.0,61,0.00,,,0.00,Wunderground v.1.15,2013-01-22 05:01:00,
2013-01-22 00:02:00,15.3,4.2,30.29,WNW,297,7.0,10.0,61,0.00,,,0.00,Wunderground v.1.15,2013-01-22 05:02:00,
2013-01-22 00:07:00,15.2,4.5,30.29,WNW,291,6.0,10.0,62,0.00,,,0.00,Wunderground v.1.15,2013-01-22 05:07:00,
2013-01-22 00:12:00,15.1,4.1,30.29,NW,304,6.0,10.0,61,0.00,,,0.00,Wunderground v.1.15,2013-01-22 05:12:00,
2013-01-22 00:18:00,15.0,2.9,30.30,NW,307,8.0,16.0,58,0.00,,,0.00,Wunderground v.1.15,2013-01-22 05:18:00,
2013-01-22 00:24:00,14.9,2.4,30.29,NW,311,8.0,11.0,57,0.00,,,0.00,Wunderground v.1.15,2013-01-22 05:24:00,
2013-01-22 00:30:00,14.8,2.3,30.29,WNW,297,7.0,7.0,57,0.00,,,0.00,Wunderground v.1.15,2013-01-22 05:30:00,
2013-01-22 00:35:00,14.7,2.2,30.29,NW,304,7.0,7.0,57,0.00,,,0.00,Wunderground v.1.15,2013-01-22 05:35:00,
2013-01-22 00:41:00,14.6,2.5,30.30,WNW,293,6.0,6.0,58,0.00,,,0.00,Wunderground v.1.15,2013-01-22 05:41:00,
2013-01-22 00:47:00,14.4,3.0,30.30,WNW,293,5.0,6.0,60,0.00,,,0.00,Wunderground v.1.15,2013-01-22 05:47:00,
2013-01-22 00:53:00,14.3,2.9,30.30,West,280,5.0,6.0,60,0.00,,,0.00,Wunderground v.1.15,2013-01-22 05:53:00,
2013-01-22 00:58:00,14.1,2.7,30.30,West,274,4.0,6.0,60,0.00,,,0.00,Wunderground v.1.15,2013-01-22 05:58:00,
2013-01-22 01:04:00,14.0,3.4,30.30,WNW,299,3.0,4.0,62,0.00,,,0.00,Wunderground v.1.15,2013-01-22 06:04:00,
2013-01-22 01:10:00,13.9,3.3,30.30,WNW,293,4.0,6.0,62,0.00,,,0.00,Wunderground v.1.15,2013-01-22 06:10:00,
2013-01-22 01:16:00,13.8,3.2,30.30,WNW,290,5.0,7.0,62,0.00,,,0.00,Wunderground v.1.15,2013-01-22 06:16:00,
2013-01-22 01:21:00,13.7,3.1,30.30,WNW,291,5.0,5.0,62,0.00,,,0.00,Wunderground v.1.15,2013-01-22 06:21:00,
2013-01-22 01:26:00,13.7,2.7,30.30,WNW,297,5.0,8.0,61,0.00,,,0.00,Wunderground v.1.15,2013-01-22 06:26:00,
2013-01-22 01:31:00,13.6,3.0,30.30,WNW,297,6.0,7.0,62,0.00,,,0.00,Wunderground v.1.15,2013-01-22 06:31:00,
2013-01-22 01:37:00,13.5,2.9,30.31,NW,311,6.0,7.0,62,0.00,,,0.00,Wunderground v.1.15,2013-01-22 06:37:00,
2013-01-22 01:43:00,13.4,2.8,30.31,WNW,283,5.0,8.0,62,0.00,,,0.00,Wunderground v.1.15,2013-01-22 06:43:00,
2013-01-22 01:49:00,13.2,3.3,30.31,WNW,283,5.0,8.0,64,0.00,,,0.00,Wunderground v.1.15,2013-01-22 06:49:00,
2013-01-22 01:56:00,13.0,3.1,30.31,WNW,295,4.0,6.0,64,0.00,,,0.00,Wunderground v.1.15,2013-01-22 06:56:00,
2013-01-22 02:02:00,12.9,3.3,30.31,WNW,290,3.0,3.0,65,0.00,,,0.00,Wunderground v.1.15,2013-01-22 07:02:00,
2013-01-22 02:08:00,12.7,3.1,30.31,WNW,287,3.0,5.0,65,0.00,,,0.00,Wunderground v.1.15,2013-01-22 07:08:00,
2013-01-22 02:15:00,12.6,3.4,30.32,West,280,3.0,5.0,66,0.00,,,0.00,Wunderground v.1.15,2013-01-22 07:15:00,
2013-01-22 02:20:00,12.4,3.5,30.32,WNW,293,2.0,2.0,67,0.00,,,0.00,Wunderground v.1.15,2013-01-22 07:20:00,
2013-01-22 02:26:00,12.2,3.3,30.32,WNW,288,1.0,4.0,67,0.00,,,0.00,Wunderground v.1.15,2013-01-22 07:26:00,
2013-01-22 02:31:00,12.0,3.5,30.32,WNW,285,1.0,2.0,68,0.00,,,0.00,Wunderground v.1.15,2013-01-22 07:31:00,
2013-01-22 02:36:00,11.9,3.7,30.32,WNW,291,1.0,3.0,69,0.00,,,0.00,Wunderground v.1.15,2013-01-22 07:36:00,
2013-01-22 02:42:00,11.8,3.6,30.32,WNW,284,2.0,2.0,69,0.00,,,0.00,Wunderground v.1.15,2013-01-22 07:42:00,
2013-01-22 02:47:00,11.7,3.8,30.32,WNW,293,2.0,2.0,70,0.00,,,0.00,Wunderground v.1.15,2013-01-22 07:47:00,
2013-01-22 02:52:00,11.6,4.0,30.32,WNW,297,1.0,1.0,71,0.00,,,0.00,Wunderground v.1.15,2013-01-22 07:52:00,
2013-01-22 02:57:00,11.4,4.1,30.33,West,281,1.0,1.0,72,0.00,,,0.00,Wunderground v.1.15,2013-01-22 07:57:00,
2013-01-22 03:02:00,11.3,4.0,30.33,WNW,298,1.0,3.0,72,0.00,,,0.00,Wunderground v.1.15,2013-01-22 08:02:00,
2013-01-22 03:08:00,11.4,3.2,30.33,West,274,2.0,4.0,69,0.00,,,0.00,Wunderground v.1.15,2013-01-22 08:08:00,
2013-01-22 03:14:00,11.5,3.0,30.33,West,266,3.0,4.0,68,0.00,,,0.00,Wunderground v.1.15,2013-01-22 08:14:00,
2013-01-22 03:20:00,11.4,2.9,30.33,West,278,3.0,3.0,68,0.00,,,0.00,Wunderground v.1.15,2013-01-22 08:20:00,
2013-01-22 03:26:00,11.4,2.9,30.33,WNW,290,4.0,6.0,68,0.00,,,0.00,Wunderground v.1.15,2013-01-22 08:26:00,
2013-01-22 03:31:00,11.4,2.9,30.33,WNW,288,4.0,4.0,68,0.00,,,0.00,Wunderground v.1.15,2013-01-22 08:31:00,
2013-01-22 03:36:00,11.3,3.1,30.33,WNW,293,3.0,4.0,69,0.00,,,0.00,Wunderground v.1.15,2013-01-22 08:36:00,
2013-01-22 03:41:00,11.1,3.2,30.33,West,271,3.0,3.0,70,0.00,,,0.00,Wunderground v.1.15,2013-01-22 08:41:00,
2013-01-22 03:46:00,11.0,3.1,30.33,WSW,252,2.0,3.0,70,0.00,,,0.00,Wunderground v.1.15,2013-01-22 08:46:00,
2013-01-22 03:52:00,10.8,3.2,30.33,West,270,1.0,1.0,71,0.00,,,0.00,Wunderground v.1.15,2013-01-22 08:52:00,
2013-01-22 03:58:00,10.7,3.4,30.33,WSW,254,1.0,2.0,72,0.00,,,0.00,Wunderground v.1.15,2013-01-22 08:58:00,
2013-01-22 04:04:00,10.6,3.3,30.33,WSW,254,1.0,1.0,72,0.00,,,0.00,Wunderground v.1.15,2013-01-22 09:04:00,
2013-01-22 04:10:00,10.5,3.6,30.33,WSW,252,0.0,0.0,73,0.00,,,0.00,Wunderground v.1.15,2013-01-22 09:10:00,
2013-01-22 04:15:00,10.4,3.5,30.33,WNW,291,1.0,3.0,73,0.00,,,0.00,Wunderground v.1.15,2013-01-22 09:15:00,
2013-01-22 04:21:00,10.6,3.3,30.33,West,277,2.0,3.0,72,0.00,,,0.00,Wunderground v.1.15,2013-01-22 09:21:00,
2013-01-22 04:26:00,10.6,3.3,30.34,WSW,252,2.0,4.0,72,0.00,,,0.00,Wunderground v.1.15,2013-01-22 09:26:00,
2013-01-22 04:32:00,10.6,3.0,30.34,West,264,3.0,3.0,71,0.00,,,0.00,Wunderground v.1.15,2013-01-22 09:32:00,
2013-01-22 04:38:00,10.7,2.8,30.33,West,267,3.0,4.0,70,0.00,,,0.00,Wunderground v.1.15,2013-01-22 09:38:00,
2013-01-22 04:43:00,10.7,2.8,30.34,West,281,3.0,4.0,70,0.00,,,0.00,Wunderground v.1.15,2013-01-22 09:43:00,
2013-01-22 04:49:00,10.7,2.8,30.34,West,280,3.0,5.0,70,0.00,,,0.00,Wunderground v.1.15,2013-01-22 09:49:00,
2013-01-22 04:55:00,10.8,2.9,30.34,West,271,3.0,4.0,70,0.00,,,0.00,Wunderground v.1.15,2013-01-22 09:55:00,
2013-01-22 05:01:00,10.9,3.0,30.34,West,259,3.0,3.0,70,0.00,,,0.00,Wunderground v.1.15,2013-01-22 10:01:00,
2013-01-22 05:07:00,11.0,3.1,30.34,West,276,2.0,5.0,70,0.00,,,0.00,Wunderground v.1.15,2013-01-22 10:07:00,
2013-01-22 05:13:00,11.1,3.2,30.34,WNW,297,3.0,5.0,70,0.00,,,0.00,Wunderground v.1.15,2013-01-22 10:13:00,
2013-01-22 05:18:00,11.2,3.3,30.34,West,260,3.0,5.0,70,0.00,,,0.00,Wunderground v.1.15,2013-01-22 10:18:00,
2013-01-22 05:24:00,11.3,3.7,30.34,West,274,2.0,3.0,71,0.00,,,0.00,Wunderground v.1.15,2013-01-22 10:24:00,
2013-01-22 05:30:00,11.2,3.0,30.34,SW,234,3.0,4.0,69,0.00,,,0.00,Wunderground v.1.15,2013-01-22 10:30:00,
2013-01-22 05:35:00,11.2,2.7,30.35,West,271,3.0,4.0,68,0.00,,,0.00,Wunderground v.1.15,2013-01-22 10:35:00,
2013-01-22 05:41:00,11.2,3.0,30.35,WSW,255,3.0,3.0,69,0.00,,,0.00,Wunderground v.1.15,2013-01-22 10:41:00,
2013-01-22 05:47:00,11.2,2.4,30.35,WNW,295,3.0,7.0,67,0.00,,,0.00,Wunderground v.1.15,2013-01-22 10:47:00,
2013-01-22 05:52:00,11.2,2.4,30.35,WNW,293,4.0,6.0,67,0.00,,,0.00,Wunderground v.1.15,2013-01-22 10:52:00,
2013-01-22 05:58:00,11.2,2.0,30.35,WNW,287,4.0,6.0,66,0.00,,,0.00,Wunderground v.1.15,2013-01-22 10:58:00,
2013-01-22 06:03:00,11.2,2.4,30.35,WNW,296,4.0,5.0,67,0.00,,,0.00,Wunderground v.1.15,2013-01-22 11:03:00,
2013-01-22 06:09:00,11.3,2.5,30.35,West,274,4.0,7.0,67,0.00,,,0.00,Wunderground v.1.15,2013-01-22 11:09:00,
2013-01-22 06:14:00,11.2,2.4,30.36,WNW,294,4.0,5.0,67,0.00,,,0.00,Wunderground v.1.15,2013-01-22 11:14:00,
2013-01-22 06:19:00,11.2,2.0,30.36,West,279,5.0,6.0,66,0.00,,,0.00,Wunderground v.1.15,2013-01-22 11:19:00,
2013-01-22 06:24:00,11.2,2.0,30.36,West,278,5.0,5.0,66,0.00,,,0.00,Wunderground v.1.15,2013-01-22 11:24:00,
2013-01-22 06:30:00,11.2,2.4,30.36,West,271,4.0,4.0,67,0.00,,,0.00,Wunderground v.1.15,2013-01-22 11:30:00,
2013-01-22 06:35:00,11.2,2.4,30.36,WNW,291,4.0,6.0,67,0.00,,,0.00,Wunderground v.1.15,2013-01-22 11:35:00,
2013-01-22 06:40:00,11.2,3.0,30.36,WNW,283,4.0,4.0,69,0.00,,,0.00,Wunderground v.1.15,2013-01-22 11:40:00,
2013-01-22 06:46:00,11.2,2.4,30.37,WNW,290,3.0,4.0,67,0.00,,,0.00,Wunderground v.1.15,2013-01-22 11:46:00,
2013-01-22 06:58:00,11.2,2.0,30.37,West,278,5.0,5.0,66,0.00,,,0.00,Wunderground v.1.15,2013-01-22 11:58:00,
2013-01-22 07:04:00,11.2,2.7,30.38,West,270,4.0,6.0,68,0.00,,,0.00,Wunderground v.1.15,2013-01-22 12:04:00,
2013-01-22 07:10:00,11.2,2.4,30.38,WNW,285,5.0,7.0,67,0.00,,,0.00,Wunderground v.1.15,2013-01-22 12:10:00,
2013-01-22 07:16:00,11.3,2.1,30.38,West,262,5.0,7.0,66,0.00,,,0.00,Wunderground v.1.15,2013-01-22 12:16:00,
2013-01-22 07:21:00,11.3,2.5,30.38,West,274,5.0,5.0,67,0.00,,,0.00,Wunderground v.1.15,2013-01-22 12:21:00,
2013-01-22 07:27:00,11.3,2.1,30.39,WNW,295,5.0,7.0,66,0.00,,,0.00,Wunderground v.1.15,2013-01-22 12:27:00,
2013-01-22 07:32:00,11.3,2.1,30.39,West,281,5.0,5.0,66,0.00,,,0.00,Wunderground v.1.15,2013-01-22 12:32:00,
2013-01-22 07:38:00,11.3,2.1,30.40,WNW,285,5.0,7.0,66,0.00,,,0.00,Wunderground v.1.15,2013-01-22 12:38:00,
2013-01-22 07:44:00,11.4,2.2,30.40,West,263,5.0,5.0,66,0.00,,,0.00,Wunderground v.1.15,2013-01-22 12:44:00,
2013-01-22 07:50:00,11.4,2.2,30.40,WNW,293,4.0,4.0,66,0.00,,,0.00,Wunderground v.1.15,2013-01-22 12:50:00,
2013-01-22 07:56:00,11.4,2.6,30.40,WSW,254,4.0,5.0,67,0.00,,,0.00,Wunderground v.1.15,2013-01-22 12:56:00,
2013-01-22 08:01:00,11.4,2.6,30.40,WNW,300,3.0,3.0,67,0.00,,,0.00,Wunderground v.1.15,2013-01-22 13:01:00,
2013-01-22 08:06:00,11.4,1.9,30.40,WNW,287,4.0,5.0,65,0.00,,,0.00,Wunderground v.1.15,2013-01-22 13:06:00,
2013-01-22 08:11:00,11.3,1.8,30.40,West,271,4.0,4.0,65,0.00,,,0.00,Wunderground v.1.15,2013-01-22 13:11:00,
2013-01-22 08:16:00,11.2,2.0,30.41,WNW,287,4.0,5.0,66,0.00,,,0.00,Wunderground v.1.15,2013-01-22 13:16:00,
2013-01-22 08:22:00,11.1,1.6,30.41,West,273,3.0,5.0,65,0.00,,,0.00,Wunderground v.1.15,2013-01-22 13:22:00,
2013-01-22 08:27:00,11.1,1.6,30.41,WNW,293,4.0,5.0,65,0.00,,,0.00,Wunderground v.1.15,2013-01-22 13:27:00,
2013-01-22 08:33:00,11.1,1.6,30.41,WNW,291,4.0,8.0,65,0.00,,,0.00,Wunderground v.1.15,2013-01-22 13:33:00,
2013-01-22 08:38:00,11.4,1.9,30.41,WNW,289,5.0,8.0,65,0.00,,,0.00,Wunderground v.1.15,2013-01-22 13:38:00,
2013-01-22 08:44:00,11.4,1.9,30.41,West,278,5.0,6.0,65,0.00,,,0.00,Wunderground v.1.15,2013-01-22 13:44:00,
2013-01-22 08:50:00,11.6,2.1,30.41,WNW,293,4.0,4.0,65,0.00,,,0.00,Wunderground v.1.15,2013-01-22 13:50:00,
2013-01-22 08:56:00,12.0,2.5,30.42,West,276,4.0,6.0,65,0.00,,,0.00,Wunderground v.1.15,2013-01-22 13:56:00,
2013-01-22 09:01:00,12.4,2.5,30.42,WNW,300,4.0,5.0,64,0.00,,,0.00,Wunderground v.1.15,2013-01-22 14:01:00,
2013-01-22 09:07:00,12.5,2.3,30.42,West,281,5.0,5.0,63,0.00,,,0.00,Wunderground v.1.15,2013-01-22 14:07:00,
2013-01-22 09:13:00,12.5,1.9,30.42,West,267,5.0,6.0,62,0.00,,,0.00,Wunderground v.1.15,2013-01-22 14:13:00,
2013-01-22 09:18:00,12.7,2.1,30.43,WSW,256,6.0,7.0,62,0.00,,,0.00,Wunderground v.1.15,2013-01-22 14:18:00,
2013-01-22 09:24:00,12.8,2.2,30.43,West,276,6.0,8.0,62,0.00,,,0.00,Wunderground v.1.15,2013-01-22 14:24:00,
2013-01-22 09:29:00,13.1,2.5,30.43,NW,316,5.0,5.0,62,0.00,,,0.00,Wunderground v.1.15,2013-01-22 14:29:00,
2013-01-22 09:36:00,13.2,2.6,30.43,West,276,6.0,8.0,62,0.00,,,0.00,Wunderground v.1.15,2013-01-22 14:36:00,
2013-01-22 09:41:00,13.3,2.7,30.43,WNW,288,6.0,6.0,62,0.00,,,0.00,Wunderground v.1.15,2013-01-22 14:41:00,
2013-01-22 09:46:00,13.4,1.7,30.43,WNW,291,6.0,13.0,59,0.00,,,0.00,Wunderground v.1.15,2013-01-22 14:46:00,
2013-01-22 09:52:00,13.5,1.1,30.43,West,278,6.0,11.0,57,0.00,,,0.00,Wunderground v.1.15,2013-01-22 14:52:00,
2013-01-22 09:58:00,13.7,1.6,30.44,WSW,249,7.0,11.0,58,0.00,,,0.00,Wunderground v.1.15,2013-01-22 14:58:00,
2013-01-22 10:04:00,13.8,1.7,30.44,WNW,297,7.0,8.0,58,0.00,,,0.00,Wunderground v.1.15,2013-01-22 15:04:00,
2013-01-22 10:10:00,14.0,1.5,30.44,West,263,7.0,7.0,57,0.00,,,0.00,Wunderground v.1.15,2013-01-22 15:10:00,
2013-01-22 10:16:00,14.0,1.9,30.44,WNW,294,7.0,10.0,58,0.00,,,0.00,Wunderground v.1.15,2013-01-22 15:16:00,
2013-01-22 10:21:00,14.3,1.1,30.44,WNW,300,6.0,8.0,55,0.00,,,0.00,Wunderground v.1.15,2013-01-22 15:21:00,
2013-01-22 10:27:00,14.5,1.2,30.44,West,268,6.0,12.0,55,0.00,,,0.00,Wunderground v.1.15,2013-01-22 15:27:00,
2013-01-22 10:32:00,14.6,1.3,30.44,West,259,6.0,8.0,55,0.00,,,0.00,Wunderground v.1.15,2013-01-22 15:32:00,
2013-01-22 10:37:00,14.6,0.9,30.45,WNW,297,6.0,12.0,54,0.00,,,0.00,Wunderground v.1.15,2013-01-22 15:37:00,
2013-01-22 10:43:00,14.6,1.3,30.45,WNW,288,6.0,7.0,55,0.00,,,0.00,Wunderground v.1.15,2013-01-22 15:43:00,
2013-01-22 10:48:00,14.6,1.3,30.45,West,260,6.0,10.0,55,0.00,,,0.00,Wunderground v.1.15,2013-01-22 15:48:00,
2013-01-22 10:54:00,15.1,1.8,30.45,WNW,293,6.0,10.0,55,0.00,,,0.00,Wunderground v.1.15,2013-01-22 15:54:00,
2013-01-22 10:59:00,14.7,0.6,30.45,WNW,299,6.0,10.0,53,0.00,,,0.00,Wunderground v.1.15,2013-01-22 15:59:00,
2013-01-22 11:04:00,15.1,1.0,30.45,NW,304,7.0,10.0,53,0.00,,,0.00,Wunderground v.1.15,2013-01-22 16:04:00,
2013-01-22 11:10:00,15.5,1.0,30.46,West,278,7.0,8.0,52,0.00,,,0.00,Wunderground v.1.15,2013-01-22 16:10:00,
2013-01-22 11:16:00,15.4,0.9,30.46,West,264,7.0,11.0,52,0.00,,,0.00,Wunderground v.1.15,2013-01-22 16:16:00,
2013-01-22 11:22:00,15.4,1.7,30.45,West,272,7.0,8.0,54,0.00,,,0.00,Wunderground v.1.15,2013-01-22 16:22:00,
2013-01-22 11:27:00,15.9,1.4,30.45,WNW,298,6.0,8.0,52,0.00,,,0.00,Wunderground v.1.15,2013-01-22 16:27:00,
2013-01-22 11:32:00,16.0,1.4,30.45,WNW,300,6.0,6.0,52,0.00,,,0.00,Wunderground v.1.15,2013-01-22 16:32:00,
2013-01-22 11:38:00,15.8,0.8,30.45,West,278,7.0,9.0,51,0.00,,,0.00,Wunderground v.1.15,2013-01-22 16:38:00,
2013-01-22 11:44:00,15.7,1.2,30.45,West,271,7.0,12.0,52,0.00,,,0.00,Wunderground v.1.15,2013-01-22 16:44:00,
2013-01-22 11:50:00,16.0,1.0,30.45,West,271,7.0,7.0,51,0.00,,,0.00,Wunderground v.1.15,2013-01-22 16:50:00,
2013-01-22 11:56:00,16.5,1.1,30.44,WSW,252,7.0,10.0,50,0.00,,,0.00,Wunderground v.1.15,2013-01-22 16:56:00,
2013-01-22 12:02:00,16.4,0.5,30.44,WSW,256,7.0,7.0,49,0.00,,,0.00,Wunderground v.1.15,2013-01-22 17:02:00,
2013-01-22 12:07:00,16.4,1.4,30.44,West,279,6.0,11.0,51,0.00,,,0.00,Wunderground v.1.15,2013-01-22 17:07:00,
2013-01-22 12:13:00,16.7,0.8,30.44,WNW,290,6.0,8.0,49,0.00,,,0.00,Wunderground v.1.15,2013-01-22 17:13:00,
2013-01-22 12:18:00,16.6,1.2,30.43,WNW,288,6.0,11.0,50,0.00,,,0.00,Wunderground v.1.15,2013-01-22 17:18:00,
2013-01-22 12:24:00,17.0,1.1,30.43,West,267,6.0,11.0,49,0.00,,,0.00,Wunderground v.1.15,2013-01-22 17:24:00,
2013-01-22 12:31:00,17.2,1.3,30.43,WNW,293,7.0,12.0,49,0.00,,,0.00,Wunderground v.1.15,2013-01-22 17:31:00,
2013-01-22 12:36:00,17.2,0.8,30.43,WNW,288,7.0,12.0,48,0.00,,,0.00,Wunderground v.1.15,2013-01-22 17:36:00,
2013-01-22 12:42:00,17.1,1.2,30.42,WNW,288,7.0,8.0,49,0.00,,,0.00,Wunderground v.1.15,2013-01-22 17:42:00,
2013-01-22 12:47:00,17.1,0.7,30.42,WSW,255,6.0,11.0,48,0.00,,,0.00,Wunderground v.1.15,2013-01-22 17:47:00,
2013-01-22 12:53:00,17.3,1.4,30.42,WNW,295,5.0,8.0,49,0.00,,,0.00,Wunderground v.1.15,2013-01-22 17:53:00,
2013-01-22 12:58:00,17.5,2.0,30.42,WNW,288,6.0,8.0,50,0.00,,,0.00,Wunderground v.1.15,2013-01-22 17:58:00,
2013-01-22 13:04:00,17.8,1.8,30.42,West,278,5.0,7.0,49,0.00,,,0.00,Wunderground v.1.15,2013-01-22 18:04:00,
2013-01-22 13:09:00,18.1,0.8,30.41,West,269,5.0,10.0,46,0.00,,,0.00,Wunderground v.1.15,2013-01-22 18:09:00,
2013-01-22 13:14:00,17.9,0.6,30.41,WNW,288,7.0,9.0,46,0.00,,,0.00,Wunderground v.1.15,2013-01-22 18:14:00,
2013-01-22 13:20:00,17.9,1.0,30.41,West,272,6.0,6.0,47,0.00,,,0.00,Wunderground v.1.15,2013-01-22 18:20:00,
2013-01-22 13:26:00,18.1,0.3,30.40,West,269,6.0,11.0,45,0.00,,,0.00,Wunderground v.1.15,2013-01-22 18:26:00,
2013-01-22 13:31:00,17.9,0.6,30.40,WNW,294,6.0,6.0,46,0.00,,,0.00,Wunderground v.1.15,2013-01-22 18:31:00,
2013-01-22 13:36:00,18.4,0.6,30.40,WSW,248,5.0,8.0,45,0.00,,,0.00,Wunderground v.1.15,2013-01-22 18:36:00,
2013-01-22 13:42:00,18.5,0.2,30.40,WSW,248,5.0,7.0,44,0.00,,,0.00,Wunderground v.1.15,2013-01-22 18:42:00,
2013-01-22 13:48:00,18.7,-0.6,30.40,West,276,6.0,7.0,42,0.00,,,0.00,Wunderground v.1.15,2013-01-22 18:48:00,
2013-01-22 13:53:00,19.0,1.1,30.40,WNW,300,6.0,9.0,45,0.00,,,0.00,Wunderground v.1.15,2013-01-22 18:53:00,
2013-01-22 13:58:00,19.3,-0.1,30.40,West,266,5.0,9.0,42,0.00,,,0.00,Wunderground v.1.15,2013-01-22 18:58:00,
2013-01-22 14:04:00,19.1,0.7,30.40,West,271,6.0,10.0,44,0.00,,,0.00,Wunderground v.1.15,2013-01-22 19:04:00,
2013-01-22 14:11:00,19.1,-0.3,30.40,West,264,5.0,7.0,42,0.00,,,0.00,Wunderground v.1.15,2013-01-22 19:11:00,
2013-01-22 14:16:00,19.3,0.4,30.40,WNW,301,6.0,11.0,43,0.00,,,0.00,Wunderground v.1.15,2013-01-22 19:16:00,
2013-01-22 14:22:00,19.2,-0.2,30.39,WSW,240,7.0,10.0,42,0.00,,,0.00,Wunderground v.1.15,2013-01-22 19:22:00,
2013-01-22 14:29:00,19.3,-0.1,30.39,West,280,6.0,10.0,42,0.00,,,0.00,Wunderground v.1.15,2013-01-22 19:29:00,
2013-01-22 14:35:00,19.2,-1.2,30.38,WSW,245,5.0,9.0,40,0.00,,,0.00,Wunderground v.1.15,2013-01-22 19:35:00,
2013-01-22 14:40:00,19.4,-1.0,30.38,West,272,5.0,6.0,40,0.00,,,0.00,Wunderground v.1.15,2013-01-22 19:40:00,
2013-01-22 14:45:00,19.8,-0.1,30.39,WSW,245,6.0,9.0,41,0.00,,,0.00,Wunderground v.1.15,2013-01-22 19:45:00,
2013-01-22 14:51:00,20.0,-0.5,30.38,WSW,253,6.0,6.0,40,0.00,,,0.00,Wunderground v.1.15,2013-01-22 19:51:00,
2013-01-22 14:57:00,20.1,-0.4,30.38,WNW,293,5.0,10.0,40,0.00,,,0.00,Wunderground v.1.15,2013-01-22 19:57:00,
2013-01-22 15:02:00,20.1,0.1,30.38,WNW,298,6.0,8.0,41,0.00,,,0.00,Wunderground v.1.15,2013-01-22 20:02:00,
2013-01-22 15:07:00,20.6,0.1,30.38,WNW,285,6.0,8.0,40,0.00,,,0.00,Wunderground v.1.15,2013-01-22 20:07:00,
2013-01-22 15:13:00,20.2,-0.8,30.39,West,266,6.0,7.0,39,0.00,,,0.00,Wunderground v.1.15,2013-01-22 20:13:00,
2013-01-22 15:19:00,20.5,0.5,30.39,West,262,7.0,10.0,41,0.00,,,0.00,Wunderground v.1.15,2013-01-22 20:19:00,
2013-01-22 15:25:00,20.4,-1.2,30.39,West,266,7.0,10.0,38,0.00,,,0.00,Wunderground v.1.15,2013-01-22 20:25:00,
2013-01-22 15:31:00,20.4,-1.2,30.40,WSW,243,7.0,7.0,38,0.00,,,0.00,Wunderground v.1.15,2013-01-22 20:31:00,
2013-01-22 15:36:00,20.3,-1.3,30.39,WSW,248,6.0,7.0,38,0.00,,,0.00,Wunderground v.1.15,2013-01-22 20:36:00,
2013-01-22 15:41:00,20.2,-0.8,30.40,WNW,288,5.0,5.0,39,0.00,,,0.00,Wunderground v.1.15,2013-01-22 20:41:00,
2013-01-22 15:46:00,20.0,-1.0,30.40,West,270,6.0,12.0,39,0.00,,,0.00,Wunderground v.1.15,2013-01-22 20:46:00,
2013-01-22 15:53:00,20.0,-0.5,30.40,WNW,283,5.0,6.0,40,0.00,,,0.00,Wunderground v.1.15,2013-01-22 20:53:00,
2013-01-22 15:58:00,19.9,-0.6,30.40,WNW,291,6.0,7.0,40,0.00,,,0.00,Wunderground v.1.15,2013-01-22 20:58:00,
2013-01-22 16:04:00,20.0,0.0,30.40,West,259,7.0,11.0,41,0.00,,,0.00,Wunderground v.1.15,2013-01-22 21:04:00,
2013-01-22 16:10:00,20.0,-0.5,30.40,WNW,298,7.0,8.0,40,0.00,,,0.00,Wunderground v.1.15,2013-01-22 21:10:00,
2013-01-22 16:15:00,20.1,-0.4,30.40,NW,310,6.0,8.0,40,0.00,,,0.00,Wunderground v.1.15,2013-01-22 21:15:00,
2013-01-22 16:21:00,19.9,-0.6,30.40,WSW,255,6.0,7.0,40,0.00,,,0.00,Wunderground v.1.15,2013-01-22 21:21:00,
2013-01-22 16:27:00,19.7,-0.2,30.40,WNW,287,7.0,8.0,41,0.00,,,0.00,Wunderground v.1.15,2013-01-22 21:27:00,
2013-01-22 16:33:00,19.6,-0.3,30.41,West,262,7.0,10.0,41,0.00,,,0.00,Wunderground v.1.15,2013-01-22 21:33:00,
2013-01-22 16:37:00,19.6,0.7,30.40,WSW,239,5.0,10.0,43,0.00,,,0.00,Wunderground v.1.15,2013-01-22 21:37:00,
2013-01-22 16:43:00,19.4,-0.5,30.39,West,269,6.0,7.0,41,0.00,,,0.00,Wunderground v.1.15,2013-01-22 21:43:00,
2013-01-22 16:49:00,19.4,-1.0,30.39,WSW,240,7.0,10.0,40,0.00,,,0.00,Wunderground v.1.15,2013-01-22 21:49:00,
2013-01-22 16:54:00,19.6,-0.9,30.40,West,262,6.0,8.0,40,0.00,,,0.00,Wunderground v.1.15,2013-01-22 21:54:00,
2013-01-22 17:00:00,19.7,-0.2,30.41,WNW,290,6.0,6.0,41,0.00,,,0.00,Wunderground v.1.15,2013-01-22 22:00:00,
2013-01-22 17:06:00,19.6,-0.3,30.41,NW,307,6.0,9.0,41,0.00,,,0.00,Wunderground v.1.15,2013-01-22 22:06:00,
2013-01-22 17:11:00,19.5,0.1,30.40,WNW,295,5.0,9.0,42,0.00,,,0.00,Wunderground v.1.15,2013-01-22 22:11:00,
2013-01-22 17:17:00,19.0,0.1,30.39,NW,323,5.0,9.0,43,0.00,,,0.00,Wunderground v.1.15,2013-01-22 22:17:00,
2013-01-22 17:23:00,18.8,0.5,30.40,WNW,287,3.0,6.0,44,0.00,,,0.00,Wunderground v.1.15,2013-01-22 22:23:00,
2013-01-22 17:29:00,18.6,0.3,30.40,West,266,4.0,6.0,44,0.00,,,0.00,Wunderground v.1.15,2013-01-22 22:29:00,
2013-01-22 17:35:00,18.3,0.5,30.40,WNW,289,3.0,6.0,45,0.00,,,0.00,Wunderground v.1.15,2013-01-22 22:35:00,
2013-01-22 17:41:00,18.1,0.3,30.40,West,276,3.0,4.0,45,0.00,,,0.00,Wunderground v.1.15,2013-01-22 22:41:00,
2013-01-22 17:47:00,17.8,0.9,30.41,WNW,289,3.0,4.0,47,0.00,,,0.00,Wunderground v.1.15,2013-01-22 22:47:00,
2013-01-22 17:53:00,17.6,0.8,30.41,West,281,3.0,5.0,47,0.00,,,0.00,Wunderground v.1.15,2013-01-22 22:53:00,
2013-01-22 17:58:00,17.4,0.6,30.40,WNW,288,3.0,5.0,47,0.00,,,0.00,Wunderground v.1.15,2013-01-22 22:58:00,
2013-01-22 18:04:00,17.2,0.8,30.40,West,276,2.0,4.0,48,0.00,,,0.00,Wunderground v.1.15,2013-01-22 23:04:00,
2013-01-22 18:09:00,17.0,1.1,30.40,WNW,283,2.0,4.0,49,0.00,,,0.00,Wunderground v.1.15,2013-01-22 23:09:00,
2013-01-22 18:14:00,16.8,0.9,30.40,WNW,293,2.0,2.0,49,0.00,,,0.00,Wunderground v.1.15,2013-01-22 23:14:00,
2013-01-22 18:19:00,16.6,1.2,30.40,WNW,282,1.0,2.0,50,0.00,,,0.00,Wunderground v.1.15,2013-01-22 23:19:00,
2013-01-22 18:25:00,16.5,1.5,30.41,WNW,284,1.0,1.0,51,0.00,,,0.00,Wunderground v.1.15,2013-01-22 23:25:00,
2013-01-22 18:30:00,16.3,1.3,30.41,West,280,1.0,1.0,51,0.00,,,0.00,Wunderground v.1.15,2013-01-22 23:30:00,
2013-01-22 18:36:00,16.2,1.6,30.40,West,274,1.0,1.0,52,0.00,,,0.00,Wunderground v.1.15,2013-01-22 23:36:00,
2013-01-22 18:40:00,16.1,1.5,30.39,West,281,0.0,0.0,52,0.00,,,0.00,Wunderground v.1.15,2013-01-22 23:40:00,
2013-01-22 18:46:00,15.9,1.8,30.39,West,281,0.0,0.0,53,0.00,,,0.00,Wunderground v.1.15,2013-01-22 23:46:00,
2013-01-22 18:51:00,15.5,1.8,30.39,West,281,0.0,0.0,54,0.00,,,0.00,Wunderground v.1.15,2013-01-22 23:51:00,
2013-01-22 18:57:00,15.1,2.6,30.40,West,281,0.0,0.0,57,0.00,,,0.00,Wunderground v.1.15,2013-01-22 23:57:00,
2013-01-22 19:03:00,15.0,2.5,30.41,West,281,0.0,0.0,57,0.00,,,0.00,Wunderground v.1.15,2013-01-23 00:03:00,
2013-01-22 19:09:00,15.0,2.9,30.41,West,281,0.0,0.0,58,0.00,,,0.00,Wunderground v.1.15,2013-01-23 00:09:00,
2013-01-22 19:15:00,15.0,2.5,30.42,West,272,0.0,0.0,57,0.00,,,0.00,Wunderground v.1.15,2013-01-23 00:15:00,
2013-01-22 19:21:00,15.1,3.0,30.42,West,260,0.0,0.0,58,0.00,,,0.00,Wunderground v.1.15,2013-01-23 00:21:00,
2013-01-22 19:27:00,15.1,3.3,30.42,WSW,250,0.0,0.0,59,0.00,,,0.00,Wunderground v.1.15,2013-01-23 00:27:00,
2013-01-22 19:32:00,15.0,3.2,30.42,West,276,0.0,1.0,59,0.00,,,0.00,Wunderground v.1.15,2013-01-23 00:32:00,
2013-01-22 19:38:00,15.0,3.6,30.42,WSW,253,0.0,1.0,60,0.00,,,0.00,Wunderground v.1.15,2013-01-23 00:38:00,
2013-01-22 19:44:00,14.8,3.4,30.41,WSW,253,0.0,1.0,60,0.00,,,0.00,Wunderground v.1.15,2013-01-23 00:44:00,
2013-01-22 19:49:00,14.6,2.9,30.41,SW,233,0.0,1.0,59,0.00,,,0.00,Wunderground v.1.15,2013-01-23 00:49:00,
2013-01-22 19:55:00,14.5,3.1,30.41,West,266,0.0,0.0,60,0.00,,,0.00,Wunderground v.1.15,2013-01-23 00:55:00,
2013-01-22 20:00:00,14.5,3.1,30.41,WSW,251,0.0,0.0,60,0.00,,,0.00,Wunderground v.1.15,2013-01-23 01:00:00,
2013-01-22 20:06:00,14.3,2.9,30.41,West,259,0.0,0.0,60,0.00,,,0.00,Wunderground v.1.15,2013-01-23 01:06:00,
2013-01-22 20:12:00,14.3,2.9,30.41,West,262,0.0,0.0,60,0.00,,,0.00,Wunderground v.1.15,2013-01-23 01:12:00,
2013-01-22 20:18:00,14.4,3.0,30.41,West,266,0.0,0.0,60,0.00,,,0.00,Wunderground v.1.15,2013-01-23 01:18:00,
2013-01-22 20:23:00,14.3,3.3,30.41,West,271,0.0,1.0,61,0.00,,,0.00,Wunderground v.1.15,2013-01-23 01:23:00,
2013-01-22 20:29:00,14.4,3.0,30.41,West,280,0.0,1.0,60,0.00,,,0.00,Wunderground v.1.15,2013-01-23 01:29:00,
2013-01-22 20:34:00,14.4,3.4,30.41,West,262,0.0,1.0,61,0.00,,,0.00,Wunderground v.1.15,2013-01-23 01:34:00,
2013-01-22 20:40:00,14.3,3.3,30.41,West,264,0.0,0.0,61,0.00,,,0.00,Wunderground v.1.15,2013-01-23 01:40:00,
2013-01-22 20:47:00,14.2,3.6,30.41,WSW,257,0.0,0.0,62,0.00,,,0.00,Wunderground v.1.15,2013-01-23 01:47:00,
2013-01-22 20:52:00,14.2,3.9,30.41,WSW,255,0.0,0.0,63,0.00,,,0.00,Wunderground v.1.15,2013-01-23 01:52:00,
2013-01-22 20:58:00,14.1,3.5,30.41,WSW,253,0.0,1.0,62,0.00,,,0.00,Wunderground v.1.15,2013-01-23 01:58:00,
2013-01-22 21:04:00,14.2,3.6,30.41,WSW,252,0.0,0.0,62,0.00,,,0.00,Wunderground v.1.15,2013-01-23 02:04:00,
2013-01-22 21:09:00,14.2,3.2,30.41,West,260,0.0,1.0,61,0.00,,,0.00,Wunderground v.1.15,2013-01-23 02:09:00,
2013-01-22 21:15:00,14.3,2.9,30.41,WSW,248,0.0,1.0,60,0.00,,,0.00,Wunderground v.1.15,2013-01-23 02:15:00,
2013-01-22 21:20:00,14.3,2.9,30.40,WSW,249,0.0,1.0,60,0.00,,,0.00,Wunderground v.1.15,2013-01-23 02:20:00,
2013-01-22 21:26:00,14.3,2.9,30.40,WSW,243,0.0,1.0,60,0.00,,,0.00,Wunderground v.1.15,2013-01-23 02:26:00,
2013-01-22 21:32:00,14.4,3.0,30.40,West,272,0.0,0.0,60,0.00,,,0.00,Wunderground v.1.15,2013-01-23 02:32:00,
2013-01-22 21:37:00,14.3,2.9,30.40,WSW,250,0.0,1.0,60,0.00,,,0.00,Wunderground v.1.15,2013-01-23 02:37:00,
2013-01-22 21:42:00,14.2,2.8,30.40,WSW,244,0.0,1.0,60,0.00,,,0.00,Wunderground v.1.15,2013-01-23 02:42:00,
2013-01-22 21:48:00,14.1,3.1,30.40,WSW,253,0.0,1.0,61,0.00,,,0.00,Wunderground v.1.15,2013-01-23 02:48:00,
2013-01-22 21:53:00,13.9,3.3,30.40,West,278,0.0,0.0,62,0.00,,,0.00,Wunderground v.1.15,2013-01-23 02:53:00,
2013-01-22 21:59:00,14.0,3.0,30.40,West,274,0.0,0.0,61,0.00,,,0.00,Wunderground v.1.15,2013-01-23 02:59:00,
2013-01-22 22:05:00,14.1,3.1,30.41,WSW,254,0.0,1.0,61,0.00,,,0.00,Wunderground v.1.15,2013-01-23 03:05:00,
2013-01-22 22:11:00,14.4,3.7,30.41,West,259,0.0,1.0,62,0.00,,,0.00,Wunderground v.1.15,2013-01-23 03:11:00,
2013-01-22 22:17:00,14.8,4.1,30.42,West,262,1.0,2.0,62,0.00,,,0.00,Wunderground v.1.15,2013-01-23 03:17:00,
2013-01-22 22:22:00,15.4,4.7,30.41,West,263,1.0,3.0,62,0.00,,,0.00,Wunderground v.1.15,2013-01-23 03:22:00,
2013-01-22 22:28:00,15.8,4.4,30.41,West,267,2.0,3.0,60,0.00,,,0.00,Wunderground v.1.15,2013-01-23 03:28:00,
2013-01-22 22:33:00,16.1,4.6,30.41,WNW,298,2.0,3.0,60,0.00,,,0.00,Wunderground v.1.15,2013-01-23 03:33:00,
2013-01-22 22:39:00,16.3,4.5,30.41,West,276,2.0,3.0,59,0.00,,,0.00,Wunderground v.1.15,2013-01-23 03:39:00,
2013-01-22 22:45:00,16.4,3.8,30.41,West,270,3.0,4.0,57,0.00,,,0.00,Wunderground v.1.15,2013-01-23 03:45:00,
2013-01-22 22:52:00,16.6,4.0,30.41,West,278,3.0,3.0,57,0.00,,,0.00,Wunderground v.1.15,2013-01-23 03:52:00,
2013-01-22 22:57:00,16.6,3.6,30.41,WNW,287,3.0,6.0,56,0.00,,,0.00,Wunderground v.1.15,2013-01-23 03:57:00,
2013-01-22 23:03:00,16.6,3.6,30.41,WNW,287,4.0,7.0,56,0.00,,,0.00,Wunderground v.1.15,2013-01-23 04:03:00,
2013-01-22 23:12:00,16.5,3.5,30.42,West,267,3.0,3.0,56,0.00,,,0.00,Wunderground v.1.15,2013-01-23 04:12:00,
2013-01-22 23:18:00,16.5,3.5,30.42,WNW,287,3.0,5.0,56,0.00,,,0.00,Wunderground v.1.15,2013-01-23 04:18:00,
2013-01-22 23:24:00,16.6,3.6,30.42,West,281,4.0,6.0,56,0.00,,,0.00,Wunderground v.1.15,2013-01-23 04:24:00,
2013-01-22 23:30:00,16.6,4.0,30.42,West,259,3.0,3.0,57,0.00,,,0.00,Wunderground v.1.15,2013-01-23 04:30:00,
2013-01-22 23:35:00,16.6,4.0,30.42,WSW,240,3.0,5.0,57,0.00,,,0.00,Wunderground v.1.15,2013-01-23 04:35:00,
2013-01-22 23:40:00,16.6,3.6,30.42,NW,304,3.0,4.0,56,0.00,,,0.00,Wunderground v.1.15,2013-01-23 04:40:00,
2013-01-22 23:45:00,16.6,3.6,30.42,WNW,283,4.0,6.0,56,0.00,,,0.00,Wunderground v.1.15,2013-01-23 04:45:00,
2013-01-22 23:51:00,16.6,3.6,30.42,NW,313,4.0,8.0,56,0.00,,,0.00,Wunderground v.1.15,2013-01-23 04:51:00,
2013-01-22 23:57:00,16.6,4.0,30.42,West,276,4.0,8.0,57,0.00,,,0.00,Wunderground v.1.15,2013-01-23 04:57:00,